Погода в Никольском

Россия / Ярославская область     58°00′09″N   39°45′55″E
темп.,
°C
ветер,
м/с
пор.,
м/с
влажн.,
%
обл.,
%
осадки,
мм/ч
давл.,
гПа
погр.,
м
15 мая, сб
сб1500:00+13юв389768 0.1 1014248
03:00+11вюв289782 0.1 1013179
06:00+14вюв41097100 0.1 1012355
09:00+17юв4787100 0.9 1010378
12:00+20вюв498194 0.8 1009667
15:00+16ююв81392100 4.6 1008657
18:00+19ю5118526 3.3 1006561
21:00+15ююз6148681 6.7 1007471
16 мая, вс
вс1600:00+13ю3119561 0.0 1008254
03:00+11ю310975 0.0 1008227
06:00+13ю410955 0.0 1009362
09:00+17ююз597613 0.0 1010914
12:00+18юз597297 0.5 10101472
15:00+19юз510706 1.8 10111425
18:00+18юз497783 1.3 1011742
21:00+14ююз399536 1.7 1012233
17 мая, пн
пн1700:00+12зюз279716 0.0 1013167
03:00+11зюз22975 0.0 101526
06:00+13св11945 0.0 101666
09:00+17ююв2378100 0.0 1017591
12:00+21ююв2361100 0.0 10171097
15:00+22юв345894 0.0 10161380
18:00+21вюв366914 0.0 1015596
21:00+16в3108936 0.0 1015198
18 мая, вт
вт1800:00+15вюв412905 0.3 1014255
03:00+13вюв499614 0.4 1014163
06:00+15вюв410905 0.0 1014257
09:00+21юв5106614 0.0 1013484
12:00+25юв6115199 0.0 10121000
15:00+26юв611495 0.0 10111525
18:00+24юв612562 0.0 1010818
21:00+19вюв515735 0.0 1010489
19 мая, ср
ср1900:00+17вюв515801 0.0 1009429
03:00+16юв4118775 0.0 1008308
06:00+17юв4108588 0.0 1007363
09:00+20юв5971100 0.0 1007532
12:00+24юв6155769 0.0 10061718
15:00+24юв5858100 0.1 10041531
18:00+19ююз5128288 1.6 1003578
21:00+15ююв5128870 2.1 1003801